Theta_e
351 351 352 354 353 355 355 356 356 355 355 343 341 351 355 361 363 363 364 363 362 363 361 360 358 356 359 358 358 357 355 357 356 351 349 358 357 350 349 352 355 355 357 358 357 357 355 355 355 356 357 357 356 355 355 353 351 350 348 349 351 354 354 354 352 350 350 350 347 346 348 350 350 350 351 355 354 351 349 343 338 334 334 340 348 352 352 353 354 354 352 348 345 341 338 338 336
353 353 353 354 354 356 356 357 355 344 346 343 345 353 357 364 362 361 364 364 364 361 360 358 356 357 358 354 355 356 357 356 354 354 354 356 353 350 350 353 355 354 357 358 357 357 356 355 354 356 357 358 356 355 355 354 353 351 349 348 350 353 356 355 354 352 351 351 351 350 351 352 352 352 353 355 353 350 347 342 336 333 340 349 352 353 353 354 354 355 353 348 345 341 338 337 337
352 353 353 354 355 355 355 358 349 336 340 344 348 356 361 364 363 363 364 364 363 359 359 358 358 360 358 357 358 359 360 356 352 353 352 354 352 350 352 354 355 354 356 357 356 356 357 355 353 356 357 358 356 355 354 352 352 351 349 348 348 352 356 356 355 354 354 353 354 354 355 355 353 354 354 354 351 348 345 339 335 337 348 354 354 354 354 355 354 355 353 349 345 340 338 339 343
351 353 354 354 355 355 355 357 349 341 340 340 345 359 363 363 364 363 363 363 361 359 359 359 360 359 358 361 358 358 359 356 355 354 352 354 353 350 352 354 355 355 355 357 356 356 357 355 353 355 357 357 355 354 353 351 349 349 348 348 347 348 352 355 356 356 357 357 356 356 357 356 355 356 354 351 348 345 341 336 340 348 353 354 354 354 355 355 355 354 351 346 341 340 341 344 347
353 354 354 356 357 358 357 357 351 345 344 343 345 358 364 362 363 362 363 362 360 360 360 359 361 358 358 361 359 360 360 357 357 355 354 355 353 350 352 354 355 355 356 357 355 356 357 354 353 354 355 356 354 353 351 350 348 347 347 348 348 346 347 349 352 355 356 356 357 357 357 356 356 355 351 347 344 340 338 341 348 353 354 354 354 355 355 355 353 351 346 342 341 344 346 347 347
354 355 354 356 357 356 356 350 344 342 350 355 350 358 363 360 363 362 362 361 360 361 359 360 362 359 359 360 359 362 360 359 358 355 355 356 352 350 353 355 354 354 356 356 355 357 356 353 353 352 353 353 353 351 350 349 348 348 348 348 349 347 345 343 344 345 347 348 349 350 352 352 351 349 344 341 338 338 343 350 353 353 354 355 355 354 354 352 349 345 342 342 344 348 349 349 348
354 355 355 356 357 357 355 344 341 345 353 359 356 361 362 361 363 361 363 363 363 361 360 362 361 360 361 360 359 361 360 360 359 356 357 355 351 352 354 354 354 355 355 356 356 358 355 353 352 352 351 351 352 351 349 349 348 349 350 350 350 351 350 347 345 344 344 343 342 343 344 344 343 341 340 340 342 345 350 353 353 354 354 354 353 352 350 347 345 344 343 344 347 350 349 350 349
354 354 354 357 358 357 353 344 345 352 354 358 358 360 361 362 362 362 364 364 364 363 362 363 362 363 362 360 361 361 361 362 360 357 357 354 352 353 353 353 354 354 355 356 357 357 354 352 352 352 351 351 352 351 350 350 349 349 350 350 351 352 352 352 351 351 351 350 349 349 347 346 346 346 348 350 352 353 353 354 354 353 353 352 350 348 347 345 346 347 347 348 349 350 349 350 350
354 354 355 356 356 350 345 343 348 355 358 357 358 362 362 361 361 363 364 364 364 362 364 362 361 365 362 361 361 358 360 362 359 358 356 353 353 352 353 354 354 355 355 355 357 357 354 353 352 351 351 350 350 350 350 351 350 350 349 349 350 352 352 352 353 353 353 352 353 353 353 352 352 352 353 353 353 353 353 352 352 351 351 349 348 347 346 346 349 350 350 349 349 349 349 351 352
355 353 356 356 351 340 335 340 348 356 360 357 360 364 364 361 361 363 364 365 364 363 363 359 359 364 362 362 361 357 359 361 358 358 355 353 353 352 353 353 353 354 354 355 357 357 355 353 348 347 349 348 348 348 349 350 349 350 350 349 349 350 351 352 352 352 352 351 351 352 352 352 352 351 352 351 351 351 351 351 351 350 349 347 348 347 348 349 350 350 350 349 350 350 351 352 353
356 353 356 354 342 333 332 339 347 356 360 358 362 364 364 363 362 362 364 365 364 363 361 359 363 364 362 362 361 359 359 359 358 357 355 353 351 351 353 353 353 353 354 355 355 356 356 352 345 345 349 349 349 349 349 350 350 349 349 349 348 349 350 351 352 353 352 351 352 352 352 352 352 352 352 352 351 351 351 350 350 348 347 348 348 349 350 351 350 351 350 350 351 351 352 352 353
356 355 357 350 339 338 341 344 350 358 358 359 362 362 363 363 364 363 364 365 364 364 361 361 363 362 364 363 360 359 358 358 357 357 356 353 352 352 352 353 353 352 353 354 355 356 356 354 347 347 351 351 351 352 351 351 352 348 346 346 345 347 348 349 351 352 353 352 352 353 352 352 352 352 352 351 350 349 348 348 347 347 347 348 349 350 351 351 351 351 350 350 350 351 352 353 354
355 357 357 350 346 350 349 349 355 358 355 359 361 360 362 363 365 363 364 365 364 365 362 360 361 362 365 363 360 358 358 358 357 356 356 353 352 353 353 353 352 352 353 352 354 355 356 356 352 351 351 350 352 354 353 351 350 346 343 343 342 344 345 346 349 351 352 352 351 351 351 352 351 350 349 348 347 346 346 346 347 347 348 350 351 351 351 351 351 350 350 350 350 351 351 353 354
355 356 356 353 354 356 352 350 354 350 350 360 361 358 361 363 364 362 363 365 364 364 362 358 358 363 364 362 361 358 358 357 356 356 355 353 353 353 352 353 352 352 352 352 354 355 356 355 354 354 352 352 353 354 353 350 347 344 341 341 342 345 346 346 348 350 351 351 351 350 350 350 350 349 348 347 347 346 347 347 348 349 350 351 351 352 352 352 351 351 351 350 351 351 352 353 353
354 354 356 355 352 352 353 353 354 350 350 361 361 358 361 362 361 363 364 365 364 359 359 359 358 362 364 364 362 358 357 357 356 355 355 354 354 353 353 352 351 351 351 352 354 355 355 354 354 355 354 354 354 354 353 350 347 346 343 339 343 348 349 348 348 350 351 351 351 350 350 349 349 349 349 348 348 348 349 350 351 351 350 351 351 351 352 351 351 351 351 351 352 352 353 353 352
353 353 358 353 348 348 351 356 357 353 354 360 360 358 362 361 360 363 362 362 362 357 358 360 358 361 362 362 361 357 357 356 355 355 355 354 353 353 353 351 350 351 351 352 353 354 354 354 354 354 354 354 354 354 354 353 348 346 345 341 346 351 352 353 352 352 353 352 351 351 350 351 352 351 351 351 351 351 351 352 352 351 350 350 349 350 350 350 350 350 351 352 352 352 352 351 350
352 356 358 348 346 348 351 358 356 352 356 361 361 360 361 361 359 361 359 358 361 359 359 360 357 358 360 361 359 357 357 355 355 355 355 354 354 353 352 351 350 351 352 352 352 353 353 353 353 354 354 351 352 352 353 355 346 343 347 345 350 354 353 354 353 353 354 354 352 352 352 353 356 355 354 354 355 354 353 352 350 350 351 351 351 350 350 349 348 349 349 350 349 348 348 349 351
354 359 355 345 349 352 354 360 357 355 359 360 361 361 359 360 360 359 359 360 362 360 359 359 357 358 360 361 357 356 356 355 355 355 355 355 354 354 353 352 351 352 353 352 352 352 352 352 352 353 352 350 351 351 352 354 347 349 355 353 354 354 353 354 353 354 355 355 353 353 354 354 357 358 357 356 357 356 354 352 350 350 353 354 354 353 350 349 347 346 346 345 343 343 346 352 355
357 360 354 349 355 355 355 358 357 358 358 358 360 360 359 359 359 359 362 363 361 362 362 360 359 359 360 360 357 357 355 355 356 355 355 355 354 353 352 354 352 352 352 352 352 352 352 351 351 350 350 351 351 351 351 351 351 356 359 356 355 354 353 353 353 354 355 355 353 353 356 357 358 358 356 354 353 353 352 351 348 349 351 352 352 351 351 349 348 347 347 345 344 348 353 356 356
357 358 355 354 357 355 356 358 358 359 357 359 359 360 361 360 358 360 363 363 362 364 363 361 362 360 359 359 357 356 355 355 355 354 355 354 354 352 352 353 352 351 352 352 352 351 351 351 350 348 350 352 350 350 350 347 352 358 358 356 355 354 354 352 353 353 355 357 355 356 357 357 357 357 354 350 349 352 353 352 349 349 350 352 351 351 353 353 352 351 352 350 351 354 355 355 354
357 357 357 356 357 357 358 359 358 357 357 359 358 360 362 360 359 360 361 363 362 362 361 361 361 360 359 357 356 356 355 354 354 353 354 353 354 353 352 352 350 351 351 351 352 350 351 351 349 350 351 351 349 351 350 347 352 357 357 357 356 356 356 354 354 354 357 359 357 357 356 355 355 355 355 353 353 354 355 354 352 351 352 354 353 353 354 354 353 353 353 353 354 354 353 354 353
357 358 356 356 357 358 358 357 359 358 357 360 360 362 361 360 361 360 361 363 363 361 358 359 358 358 358 357 356 355 354 353 354 354 353 353 353 353 352 351 350 351 351 351 351 350 351 351 349 351 351 350 350 351 350 349 354 357 357 358 357 357 358 357 357 356 358 358 357 356 354 355 355 354 355 354 354 354 353 353 351 352 352 352 352 352 353 352 353 353 354 355 355 354 354 354 354
358 358 356 357 358 359 358 358 359 358 359 361 361 361 360 360 361 359 361 362 360 359 357 358 358 357 358 358 356 352 351 351 353 355 354 353 353 353 352 350 350 351 351 351 351 351 351 350 350 351 349 349 351 351 351 350 353 357 358 357 357 358 359 359 358 358 358 357 356 354 354 354 353 353 353 353 354 352 352 352 351 351 351 352 352 352 352 353 354 355 356 357 356 356 355 354 354
358 358 356 357 358 360 359 358 358 357 359 361 360 361 361 361 361 360 361 360 358 358 358 359 360 359 359 358 354 351 351 352 353 355 354 354 353 351 352 350 351 351 351 351 351 351 351 350 352 351 350 350 350 351 351 349 352 357 357 356 356 357 358 358 358 357 356 356 355 355 354 353 352 351 351 352 353 351 351 351 351 351 351 352 352 353 354 355 356 357 357 358 357 355 354 354 352
359 358 357 357 359 360 358 357 357 359 359 360 360 362 361 360 360 360 360 359 358 358 358 359 359 360 360 357 355 353 352 353 355 355 354 354 354 351 351 350 350 350 351 351 350 350 351 351 352 351 350 349 348 350 349 348 353 356 356 355 355 355 356 356 356 355 355 355 355 355 354 353 351 350 350 351 351 352 352 352 352 352 353 354 355 355 355 356 356 356 356 356 355 354 353 352 351
358 358 357 358 359 359 359 359 361 361 359 360 361 363 361 358 359 360 360 358 358 358 358 359 359 359 359 358 356 354 352 353 356 356 355 354 354 352 351 350 349 350 350 351 350 351 351 351 352 351 350 348 346 349 348 348 353 355 355 354 354 354 354 354 355 354 354 354 354 354 354 353 351 350 351 351 352 352 352 353 353 353 354 355 355 355 355 356 356 355 355 353 353 352 352 351 350
356 356 356 358 359 359 360 361 363 361 360 359 360 362 360 359 359 360 359 358 358 358 358 358 359 358 358 358 356 356 353 354 356 355 355 354 354 354 351 351 350 350 350 350 351 350 352 351 351 351 349 348 347 348 350 350 353 354 355 354 354 354 354 355 354 353 353 353 353 354 354 353 351 351 352 352 352 353 353 354 354 355 355 355 354 355 354 354 355 355 353 352 352 351 351 350 350
353 353 355 358 357 359 360 363 364 361 361 358 359 362 361 359 358 360 360 358 359 358 360 359 358 358 356 356 356 356 356 356 355 354 355 354 354 354 352 351 350 350 350 350 351 350 352 351 351 351 350 349 348 348 351 350 351 353 354 354 353 354 354 354 353 352 352 353 353 354 354 353 353 353 353 353 354 354 354 354 355 355 355 355 354 354 354 354 354 354 353 352 352 351 351 350 349
348 350 357 361 359 362 362 364 363 361 363 358 358 359 359 361 359 360 360 357 359 359 360 359 358 359 357 355 354 353 356 356 355 353 354 353 353 353 352 351 350 350 351 350 351 350 352 352 352 352 349 349 348 348 350 349 349 352 353 354 353 353 353 353 352 352 352 353 353 353 353 354 354 353 354 355 355 355 355 355 355 354 354 354 354 354 354 354 354 353 352 351 350 351 350 349 349
349 352 357 358 353 357 364 364 362 362 361 358 359 350 349 361 358 359 361 358 360 359 358 359 358 358 356 354 353 354 356 354 355 353 353 353 353 353 351 351 351 351 351 351 351 351 352 352 352 352 348 347 347 348 350 349 349 352 352 352 353 353 353 352 352 352 352 352 352 353 353 354 355 354 355 356 356 355 355 355 354 354 355 354 355 354 353 353 352 352 351 350 350 349 349 349 349
353 353 355 355 340 345 365 363 359 365 359 357 360 345 343 360 357 357 361 359 360 358 357 358 357 356 354 354 354 355 356 356 355 353 353 354 352 352 352 352 352 352 351 351 351 351 352 353 353 350 346 346 347 349 350 350 350 351 352 352 352 353 352 352 351 350 351 351 351 353 354 355 355 355 356 356 356 356 355 354 354 354 354 354 354 353 353 352 352 351 350 350 350 349 349 349 348
355 344 339 346 335 341 365 362 356 362 358 358 358 344 344 358 356 355 359 359 361 358 356 357 358 358 355 354 356 355 356 356 356 354 354 354 353 353 353 352 352 351 351 351 351 351 351 353 352 348 345 345 347 349 350 350 350 351 353 353 353 354 353 352 351 350 349 350 350 352 354 355 356 356 357 357 356 355 354 353 353 353 353 353 353 352 352 352 351 350 350 351 350 350 350 349 348
353 342 330 336 335 336 352 359 357 356 356 359 356 350 350 355 354 354 357 358 360 359 357 359 359 360 357 355 356 355 355 355 354 354 354 354 353 353 353 353 352 351 351 350 351 351 350 351 351 347 343 343 347 350 350 349 349 352 353 353 353 353 352 352 350 350 350 350 351 351 356 357 356 357 357 358 357 354 354 353 352 352 352 353 352 352 351 350 350 349 349 349 351 351 349 348 347
339 342 334 336 339 334 337 351 358 354 355 356 357 357 354 354 354 354 357 358 360 359 358 358 359 359 358 356 355 355 356 355 354 354 355 354 355 354 354 353 353 352 352 351 351 350 350 350 349 345 342 342 347 350 349 348 349 352 354 353 353 354 352 351 351 350 350 351 351 352 356 357 356 357 357 358 357 355 354 353 353 352 352 352 352 352 350 349 349 348 348 348 349 350 349 348 347
332 335 334 335 338 336 334 342 352 353 354 355 356 357 356 356 355 354 357 359 360 360 357 357 359 358 357 357 356 355 356 355 354 354 355 355 355 355 354 354 354 353 352 351 350 349 348 349 348 344 342 343 347 349 349 348 349 353 353 352 354 354 353 352 351 351 352 351 351 354 358 358 356 357 358 358 358 356 355 353 353 353 353 353 351 350 349 348 348 348 348 348 348 349 349 349 348
340 340 340 336 334 336 340 343 347 349 350 355 357 353 355 357 356 357 357 359 360 359 359 358 358 359 358 358 357 356 356 355 355 355 355 355 355 354 354 354 353 353 351 350 350 349 348 348 347 344 343 344 347 349 350 349 350 353 353 352 353 354 353 353 352 352 352 352 353 355 357 358 358 358 358 358 358 358 355 354 354 354 353 352 351 350 349 348 348 349 349 349 350 349 347 347 347
348 347 344 340 334 334 343 345 346 349 346 349 356 353 356 358 356 359 358 359 361 358 359 359 359 359 358 358 356 356 357 355 355 355 355 354 354 354 354 354 353 352 350 349 349 348 347 347 345 344 343 345 347 349 350 350 351 353 352 352 352 352 353 353 353 352 352 353 354 356 358 358 358 359 358 357 357 357 356 354 354 354 353 352 351 350 349 349 350 349 349 349 350 349 348 347 346
348 346 341 337 333 333 342 348 347 350 346 346 356 355 355 360 356 358 359 359 360 358 359 359 358 360 358 358 356 356 356 354 354 354 355 354 353 354 354 353 352 351 349 347 347 346 346 345 344 344 343 345 348 350 351 351 351 353 352 351 351 351 353 353 352 352 352 352 355 357 357 357 358 358 358 357 357 356 355 353 353 352 353 353 353 353 353 354 355 354 352 350 349 348 348 346 346
346 344 337 330 332 334 340 352 353 350 346 347 356 353 352 359 357 356 359 359 359 358 358 358 357 358 359 358 356 356 355 353 353 352 353 353 352 353 353 353 351 349 347 346 346 345 344 344 344 345 344 346 349 350 352 352 352 354 353 352 352 350 352 353 352 352 353 352 354 356 357 357 357 356 357 356 356 355 354 354 352 351 352 354 355 356 356 355 356 356 354 353 351 349 348 347 346
344 341 331 326 333 332 329 343 356 353 349 350 354 352 353 360 357 356 358 358 360 358 358 359 356 357 358 357 355 355 354 355 353 350 351 353 353 353 353 352 350 348 346 344 344 344 343 344 345 347 347 349 351 352 354 354 354 358 357 356 356 356 356 355 354 353 353 353 353 354 355 356 356 354 354 354 353 353 352 352 351 351 352 353 355 357 357 355 353 352 352 352 352 351 349 347 348
340 341 333 328 333 333 329 338 350 349 350 358 355 341 345 358 358 356 358 358 359 357 358 360 358 358 359 356 354 354 354 354 354 351 350 352 353 353 352 351 349 346 345 344 342 342 343 344 346 349 350 352 354 355 357 356 358 361 361 360 359 357 356 356 354 351 351 352 352 352 352 353 354 353 353 352 351 351 351 350 351 352 352 352 354 355 353 352 350 350 351 351 353 353 349 347 349
333 339 338 334 336 337 338 341 343 335 335 353 351 329 333 354 357 356 358 358 359 357 358 360 358 358 357 358 355 353 354 354 354 351 350 351 353 353 352 350 349 347 346 345 343 343 343 344 348 351 353 355 355 357 359 359 361 363 361 359 357 355 355 353 352 350 349 350 349 349 349 350 352 352 351 350 350 349 350 351 349 350 352 352 352 353 351 351 349 350 350 350 352 353 351 351 351
326 335 339 339 339 339 340 340 335 326 327 347 352 331 329 344 352 357 357 357 360 357 357 360 359 358 356 357 355 354 354 353 353 352 350 350 351 351 351 349 349 348 347 347 345 345 346 346 349 353 354 355 354 357 361 361 362 363 360 357 355 354 353 352 351 350 349 348 348 349 349 349 350 350 349 348 349 350 350 350 347 347 351 352 351 351 351 350 348 348 348 349 350 350 351 353 352
327 337 339 339 341 341 342 339 333 330 333 342 350 341 329 332 346 357 356 356 360 359 358 360 360 359 356 355 354 354 354 353 353 352 350 350 350 350 349 348 349 348 347 347 347 347 348 348 350 353 355 356 354 356 361 362 361 362 360 357 355 355 352 351 353 351 349 349 349 349 348 347 348 350 350 348 349 350 349 348 346 346 350 352 351 351 349 348 347 347 348 350 353 354 354 355 355
334 339 339 339 344 345 344 339 332 336 336 329 335 342 330 328 346 359 356 355 358 359 359 359 361 360 357 355 354 354 354 352 352 351 350 350 350 349 348 348 348 347 346 347 347 347 348 350 352 354 357 357 355 357 361 362 360 361 361 357 355 355 354 352 353 352 351 351 350 350 349 349 348 348 351 349 346 347 348 348 348 350 354 355 353 350 348 349 349 349 352 354 356 357 355 354 356
337 339 338 338 344 346 347 340 329 332 333 324 326 334 327 326 341 351 351 351 353 358 357 357 360 361 359 356 354 353 353 353 352 350 351 351 350 348 347 347 347 347 346 346 347 347 348 350 352 355 358 358 356 358 361 362 361 360 360 358 357 357 356 354 353 353 354 354 352 350 349 350 347 346 350 350 348 350 352 352 350 351 352 352 352 351 351 352 351 352 353 354 356 358 358 357 357
337 338 337 336 339 344 344 339 331 328 327 323 323 330 329 327 335 345 350 350 351 357 356 355 360 361 360 356 353 354 352 353 352 350 351 352 350 348 347 347 346 346 346 346 347 347 348 349 352 356 358 357 357 359 361 361 361 360 360 360 359 359 357 356 355 354 354 354 352 348 347 347 346 346 348 349 350 351 353 353 352 350 349 349 349 350 350 349 349 348 348 349 353 357 360 361 361
337 338 334 329 328 332 330 329 331 326 321 322 325 331 330 325 330 342 350 351 348 354 357 356 358 359 359 355 353 353 352 352 352 351 350 350 349 348 347 347 346 346 346 346 346 347 348 349 352 356 358 358 357 358 359 359 359 359 359 360 360 359 359 357 356 355 353 353 351 347 347 348 347 347 346 346 348 349 349 350 351 351 350 350 351 352 352 352 352 352 352 353 354 357 360 361 362
338 334 327 322 321 322 321 319 322 321 319 324 330 331 328 325 331 342 348 348 347 351 356 356 356 357 356 354 352 351 351 351 352 351 350 349 348 349 348 347 347 347 347 347 346 346 348 349 351 356 358 359 358 357 359 359 358 359 359 359 360 360 359 358 357 355 352 350 348 346 345 346 346 346 347 346 346 347 347 347 350 352 352 354 357 359 359 360 359 359 359 359 359 360 360 361 361
335 329 322 320 321 321 321 318 318 319 318 324 334 334 326 324 333 343 344 344 347 352 354 355 355 356 354 353 352 351 351 351 352 352 350 348 348 349 349 348 347 348 348 347 347 347 348 349 351 356 358 360 359 357 358 359 358 358 358 357 358 358 358 357 355 353 350 348 348 346 344 343 344 345 346 345 347 348 347 350 353 355 358 360 362 362 362 362 361 361 361 361 361 361 361 361 361
333 335 330 321 319 321 321 318 317 319 317 320 331 332 321 320 334 344 343 343 345 350 353 355 355 354 353 353 353 352 351 351 352 352 351 349 349 349 348 348 348 348 348 348 347 347 348 349 351 355 358 360 360 358 357 358 358 357 357 357 356 356 355 354 354 353 351 349 347 345 344 345 344 343 345 347 349 350 351 355 357 359 362 363 363 362 361 361 361 361 362 361 360 360 359 360 359
332 337 330 321 322 324 319 317 318 318 318 320 323 324 323 329 342 345 345 345 344 350 354 355 354 355 354 353 353 351 349 351 351 351 351 350 350 350 348 348 349 348 348 348 347 347 347 349 351 354 358 359 359 358 357 357 357 356 356 357 355 355 355 353 353 354 354 352 348 346 346 347 346 346 347 349 349 352 357 360 360 361 362 361 361 359 359 359 359 360 360 359 359 357 357 357 357
330 327 323 326 331 327 317 316 319 318 319 321 318 318 323 331 339 346 350 348 346 351 353 354 355 356 354 353 353 351 350 350 350 351 351 350 349 350 349 349 348 348 348 348 348 347 347 349 350 353 357 357 357 358 356 354 356 355 356 357 356 354 355 353 351 352 353 352 351 350 348 348 348 348 347 348 349 356 362 361 360 359 358 357 356 355 354 355 355 356 355 354 354 353 353 354 354
328 321 323 331 331 330 322 317 319 319 318 320 317 316 319 320 327 342 352 350 348 351 351 352 354 355 355 354 352 352 352 350 350 350 350 349 350 350 349 348 347 347 347 348 348 348 347 348 349 352 355 356 355 356 355 352 353 353 353 355 354 353 352 351 350 351 351 350 351 351 349 348 350 348 349 354 356 359 361 358 356 355 353 352 351 351 350 350 350 350 349 349 347 344 345 347 347
329 325 330 329 321 321 322 318 319 319 319 320 317 316 318 317 322 334 344 349 350 351 351 351 353 354 354 353 351 352 352 351 351 350 348 348 348 348 348 346 346 346 346 346 346 346 346 347 349 351 353 354 354 355 354 352 351 351 350 350 352 352 351 351 352 353 353 350 349 348 348 350 350 349 356 361 359 358 356 354 352 351 350 349 348 347 346 345 345 345 344 344 342 338 339 341 340
330 328 331 329 323 320 319 319 319 318 319 320 318 317 318 321 328 334 341 349 351 350 351 350 352 353 352 351 351 351 351 351 351 349 347 346 346 348 347 346 346 345 345 345 344 344 345 346 349 351 351 352 354 355 355 353 351 349 349 348 349 351 353 354 354 354 353 350 348 348 348 349 352 356 361 360 357 354 353 351 349 348 348 347 346 344 343 342 342 341 340 339 338 337 337 338 337
324 322 321 323 324 324 322 320 318 318 319 319 321 319 317 325 339 341 342 348 350 350 351 350 349 350 350 349 350 351 351 351 349 348 346 344 346 348 346 346 345 344 344 344 343 343 343 344 348 351 350 350 354 356 355 355 353 351 350 348 348 351 354 356 356 354 353 349 348 348 349 351 357 360 359 356 353 352 351 349 347 346 345 345 343 341 340 339 338 337 337 336 335 336 336 336 336
326 322 321 321 322 320 319 319 318 319 318 317 320 318 318 329 340 341 342 348 349 349 350 348 347 348 348 349 349 350 351 349 348 347 345 344 346 347 345 345 345 344 344 343 343 343 342 343 348 350 350 350 354 356 356 354 354 353 352 350 350 351 354 357 356 354 352 350 348 349 353 357 360 357 355 353 351 349 348 347 346 345 343 341 339 338 337 337 335 335 335 335 334 334 334 334 333
Wind_Speed
19 19 17 14 11 6 6 5 3 3 3 1 3 4 3 1 0 2 1 4 2 0 1 1 3 7 4 3 6 3 1 3 4 2 3 5 12 22 22 23 26 25 23 22 24 24 22 22 20 20 19 19 18 17 16 16 16 15 15 15 15 15 14 14 15 14 14 15 15 15 14 13 12 11 10 9 8 7 5 4 4 5 5 4 4 4 3 2 2 2 2 3 4 5 6 6 6
15 15 14 9 5 4 2 2 3 2 2 1 2 3 3 3 1 3 5 3 2 3 4 2 5 5 2 3 5 4 3 6 9 5 5 10 17 20 21 25 27 26 24 23 24 23 22 22 21 20 19 18 18 17 17 16 15 15 15 15 15 15 14 14 15 15 15 15 14 14 13 13 12 11 11 9 8 7 5 4 5 5 4 4 4 3 2 1 1 2 3 4 5 6 7 7 7
14 12 9 4 4 5 1 3 3 2 2 3 3 3 1 1 4 6 5 3 3 4 6 6 6 4 2 6 6 4 4 4 9 8 7 15 17 18 23 25 25 25 23 22 23 23 22 22 21 21 20 18 18 17 17 16 15 14 14 14 14 15 14 14 14 14 14 13 13 14 13 13 13 12 11 10 9 7 6 5 5 4 4 4 3 2 1 0 2 2 4 4 6 6 7 6 6
13 9 4 2 3 4 3 4 3 4 2 4 3 3 2 4 6 5 4 3 4 5 6 7 5 3 1 5 5 4 4 5 7 7 9 13 14 20 25 25 25 24 22 22 22 21 22 23 23 21 20 19 18 17 16 16 16 15 14 13 13 13 13 13 13 13 12 12 12 12 12 12 12 11 11 10 8 7 6 6 5 5 4 4 3 2 1 1 2 3 5 6 6 7 6 6 5
8 5 3 3 1 1 3 2 2 3 3 5 2 4 4 6 6 5 3 2 4 4 5 6 4 3 2 1 2 2 4 5 6 6 10 13 16 24 26 25 24 23 22 21 21 21 22 24 23 22 20 19 18 17 16 16 16 15 14 13 13 12 12 12 12 12 12 11 11 11 11 11 11 10 10 8 7 7 7 6 6 5 4 3 3 2 2 2 3 5 6 6 6 6 6 6 6
6 4 4 4 2 1 3 2 2 1 5 5 3 5 5 4 4 3 3 3 4 3 5 6 4 5 4 3 1 3 4 3 5 8 11 16 21 25 26 25 23 22 22 21 21 20 23 24 22 22 20 19 17 17 16 16 16 15 15 14 13 12 12 11 11 11 11 10 10 10 10 10 10 9 9 8 7 8 7 6 6 5 4 4 3 3 3 4 4 5 6 5 4 4 5 5 6
3 2 4 4 2 2 4 1 2 2 5 5 5 6 5 4 3 1 3 4 4 4 5 5 5 7 4 4 3 6 6 2 4 7 11 20 25 26 25 24 23 22 22 21 20 21 24 23 21 21 20 19 18 17 16 16 15 15 15 14 13 13 13 12 11 11 10 10 9 9 9 9 9 8 8 8 8 7 7 6 6 5 5 4 4 4 4 4 5 5 5 5 4 4 5 5 6
2 2 2 3 3 3 4 1 1 3 3 4 5 5 6 4 2 1 3 4 4 6 6 6 6 5 4 3 4 4 5 2 2 8 16 24 27 27 25 23 24 22 21 21 20 22 24 22 21 21 21 19 18 17 16 16 15 14 14 13 13 12 12 12 12 11 11 10 10 9 9 9 9 8 8 8 8 7 7 6 6 5 5 5 5 4 4 4 4 4 4 4 4 5 5 5 6
3 3 2 3 3 2 3 0 2 2 3 4 5 5 5 3 1 1 3 4 4 5 6 7 5 3 6 5 3 0 3 3 6 13 19 25 28 27 24 23 24 23 22 21 21 24 23 21 21 21 21 19 18 17 16 15 14 14 13 13 12 12 11 11 11 11 11 11 10 10 10 9 9 8 8 8 8 7 7 6 6 5 5 5 4 4 4 4 4 4 4 5 4 5 5 6 7
4 3 3 3 3 2 2 1 2 2 4 5 5 5 5 2 1 2 4 5 5 6 6 6 4 4 8 6 4 1 4 7 11 16 19 25 28 26 23 22 23 23 22 21 23 24 23 22 21 21 20 19 18 17 16 15 14 13 13 12 12 11 11 10 10 10 10 11 10 10 9 9 9 8 8 8 7 7 6 6 5 5 5 4 3 3 3 3 4 4 4 4 5 5 6 7 7
3 3 3 3 2 1 1 2 2 3 4 5 5 5 4 2 1 3 4 5 5 7 7 6 5 6 8 5 4 4 7 11 14 17 21 25 26 24 23 22 22 22 22 22 23 23 23 22 21 21 20 19 18 17 16 15 14 13 12 12 11 11 11 10 10 9 10 10 10 9 9 9 8 8 7 7 7 6 6 6 5 5 4 4 3 3 3 4 4 4 5 5 5 6 6 7 7
3 2 3 2 1 1 2 2 3 2 3 5 6 5 4 1 1 3 5 5 6 7 7 7 3 4 7 6 3 6 9 12 15 18 23 25 24 24 23 21 21 22 22 22 22 22 23 22 21 20 19 18 17 15 15 14 13 13 12 11 10 10 10 10 9 9 9 9 9 9 9 8 8 8 7 7 6 6 6 5 5 4 4 3 3 3 3 4 4 5 5 5 6 7 7 7 8
3 2 3 1 2 2 2 2 2 1 2 5 6 5 3 1 1 2 4 5 6 6 7 6 3 2 4 6 4 6 10 13 16 20 23 24 23 23 22 21 21 21 22 22 22 22 22 21 20 20 19 17 16 14 13 13 12 12 12 10 10 10 9 9 9 9 9 9 9 9 8 8 8 8 7 6 6 5 5 5 5 4 4 4 3 4 4 4 5 5 5 5 6 7 7 8 8
2 2 4 1 0 1 2 2 2 2 2 5 5 4 2 2 2 0 4 6 5 4 5 5 4 3 4 5 5 5 9 15 19 22 23 23 23 22 21 21 21 21 22 21 21 21 21 20 19 20 19 17 16 14 12 11 11 12 11 11 10 9 9 9 10 10 10 10 10 9 9 8 8 7 7 6 6 5 5 5 5 4 4 4 4 4 4 5 5 5 5 6 6 7 8 9 9
2 2 3 1 0 0 2 2 3 2 3 5 4 4 2 1 2 1 2 3 4 4 4 5 5 2 4 5 5 7 12 17 20 22 23 23 22 21 21 21 21 20 20 20 20 20 20 19 19 19 18 17 16 14 12 11 10 11 11 11 9 9 9 9 9 9 9 10 10 9 9 8 8 8 7 7 6 5 5 5 5 4 4 4 5 5 5 5 5 6 6 6 7 8 8 9 9
3 3 3 1 1 1 2 3 3 2 4 5 3 3 2 2 0 0 2 1 3 5 4 5 5 1 3 4 8 14 17 20 22 23 24 23 22 21 20 20 20 19 18 19 19 19 19 19 18 18 17 17 15 13 12 11 11 11 11 11 9 8 8 9 9 9 8 8 8 8 8 8 7 7 7 6 6 5 5 5 4 4 4 5 5 5 5 5 5 6 6 7 7 8 9 10 10
3 3 3 1 2 3 5 4 5 4 4 4 2 3 5 2 1 1 3 1 3 6 4 4 5 1 2 7 14 20 21 22 23 23 24 23 22 20 19 20 20 18 17 17 17 17 18 18 18 17 16 16 13 11 11 10 11 11 11 10 9 8 8 9 9 8 7 7 7 7 7 7 6 6 5 5 6 5 5 4 4 4 4 4 4 4 5 5 6 7 7 8 8 9 9 10 10
3 2 1 2 3 4 5 5 6 6 5 5 3 4 6 4 1 2 3 4 4 5 5 4 6 4 6 13 20 22 22 24 24 24 24 23 21 20 19 20 20 18 17 17 17 17 17 17 17 16 15 14 12 11 10 9 11 11 9 9 9 8 8 8 9 8 7 7 7 7 6 6 6 6 5 5 5 5 4 4 5 4 4 4 4 5 5 6 7 8 8 9 9 9 9 8 8
3 2 1 3 5 4 3 5 5 6 7 7 6 5 5 5 2 2 4 5 6 6 6 7 7 8 11 16 20 22 23 24 24 24 24 22 21 21 20 20 20 19 18 17 17 17 16 16 16 15 14 14 12 10 9 9 11 10 8 8 8 8 7 8 8 7 7 7 7 7 6 6 6 6 6 5 5 4 5 5 5 5 4 5 5 6 6 8 8 8 9 10 9 8 7 6 7
2 2 1 4 6 4 2 4 5 6 7 9 8 5 5 5 2 2 4 5 8 8 7 9 9 11 13 16 19 21 22 23 24 24 23 22 21 21 20 20 20 19 18 17 17 16 15 15 15 14 13 13 11 10 9 10 11 9 8 8 8 8 8 7 7 7 8 8 7 7 6 6 6 5 4 4 4 4 4 4 4 4 4 5 7 7 6 7 9 7 9 10 7 5 5 5 6
1 2 3 5 5 5 4 4 6 7 7 8 7 6 6 4 3 4 4 5 7 8 8 10 10 13 15 16 19 21 21 22 24 23 23 22 21 21 20 20 20 19 18 17 16 16 15 15 14 13 13 13 11 10 9 10 10 8 8 9 8 9 8 7 6 7 8 8 8 7 6 5 4 4 3 3 3 3 3 3 3 3 3 4 5 5 4 4 6 5 6 6 5 5 5 6 6
3 4 4 5 6 6 7 7 7 6 6 7 7 7 5 2 4 5 6 6 3 3 7 9 9 12 16 17 18 19 20 21 22 22 22 21 21 20 20 19 19 18 17 16 16 16 15 14 14 13 13 12 11 10 9 9 10 8 8 8 8 8 8 8 8 8 8 8 7 5 4 4 3 3 2 2 2 2 2 3 3 3 3 3 3 3 3 3 4 4 4 5 5 6 5 6 7
4 4 4 6 7 8 9 9 7 6 7 7 6 6 5 5 6 5 7 8 2 2 2 6 9 12 16 18 18 18 19 20 20 21 21 21 21 20 21 20 19 19 17 16 16 16 15 15 13 13 13 13 12 10 9 9 10 8 7 8 8 7 7 8 8 7 7 6 5 4 3 3 3 2 2 1 1 2 2 2 3 3 3 3 3 3 3 3 4 4 5 5 5 5 6 7 7
5 5 6 7 8 10 10 10 9 7 8 7 5 4 5 7 5 3 6 8 5 0 1 4 9 13 16 17 18 18 19 19 20 21 21 20 20 21 21 21 20 19 17 17 16 16 15 15 13 12 12 13 12 11 9 9 9 8 8 8 8 7 7 7 7 7 6 5 5 4 3 3 2 2 1 1 1 1 1 2 2 3 3 3 3 3 3 3 4 5 5 6 5 5 7 7 7
7 7 8 9 9 10 11 10 9 7 6 4 4 6 7 7 5 4 7 7 5 3 2 6 10 12 15 16 17 17 17 19 20 20 20 19 19 20 20 19 19 19 18 17 16 16 15 15 14 13 13 13 12 11 9 9 9 8 8 8 8 7 7 6 6 6 5 4 4 4 3 3 2 2 1 1 1 1 1 2 2 2 2 3 3 3 3 4 4 5 5 6 6 6 7 7 7
5 8 10 11 12 11 11 10 7 5 3 2 4 6 6 4 4 6 8 7 5 5 5 8 11 13 14 14 15 16 17 18 19 20 19 18 19 19 19 19 19 19 18 18 16 16 15 15 15 14 13 13 12 10 9 9 9 8 8 8 7 7 6 6 5 5 4 4 4 4 3 3 2 2 2 1 1 1 1 1 2 2 2 3 3 4 4 4 5 5 6 6 6 7 8 8 8
4 10 12 13 13 10 8 6 3 3 2 2 5 5 3 2 3 5 5 6 6 7 7 9 12 13 12 10 11 13 16 17 19 19 18 18 19 19 19 19 19 18 17 18 17 15 16 15 15 14 13 13 12 10 10 9 8 8 8 8 7 7 6 6 5 5 4 4 4 4 4 3 3 2 2 1 1 1 1 1 2 2 2 3 3 4 4 5 6 6 6 6 7 7 8 8 9
8 12 12 12 10 5 4 3 2 3 2 2 5 6 3 4 5 3 4 5 7 8 9 10 12 13 11 8 8 10 13 17 18 18 18 18 19 19 19 18 18 18 17 18 18 16 16 16 15 14 14 13 12 10 10 9 8 8 8 8 7 7 6 6 5 5 5 4 4 4 4 4 3 3 2 2 2 2 2 2 2 3 3 3 4 5 5 6 6 7 6 7 7 8 9 9 9
11 11 11 11 7 3 3 2 4 4 1 1 4 6 5 6 4 2 4 5 7 9 10 11 11 11 10 8 8 8 11 16 17 17 18 18 19 20 20 19 18 18 17 18 17 16 16 16 15 14 14 14 12 11 10 10 9 9 9 8 7 7 7 6 6 6 5 5 5 5 5 4 4 4 3 3 3 3 3 4 4 4 3 4 4 5 6 6 6 6 6 7 7 8 9 9 9
11 8 7 8 4 5 5 4 5 5 1 0 5 4 1 3 3 4 5 5 8 10 11 12 10 8 8 8 7 9 12 14 16 17 18 18 18 21 21 20 19 18 16 17 18 17 16 15 14 14 14 14 13 11 10 10 9 9 9 8 8 7 7 7 6 6 6 5 6 6 6 5 5 5 4 4 4 4 5 5 5 5 4 4 5 6 6 6 6 7 7 7 7 8 9 9 10
7 6 4 5 4 3 8 6 6 4 2 2 5 4 4 4 3 4 5 6 8 10 11 13 11 9 9 9 9 11 12 14 17 18 18 18 18 19 20 20 20 18 16 18 18 18 16 15 15 14 15 14 13 12 11 10 9 9 9 8 8 8 7 7 7 6 6 6 6 6 6 6 6 6 6 5 5 5 5 5 5 5 4 5 6 6 7 7 7 7 7 8 9 9 10 10 11
5 5 2 3 4 1 7 8 5 2 3 3 5 5 5 5 4 3 5 6 8 10 11 12 12 13 13 12 12 11 12 15 17 18 18 18 17 17 19 19 20 18 17 18 18 18 17 16 15 15 15 15 13 13 12 10 10 9 9 8 8 8 7 7 7 6 6 6 6 6 6 7 7 7 6 6 6 6 6 6 5 5 5 6 7 7 7 8 8 8 7 8 10 10 11 12 12
3 3 3 3 5 4 2 8 7 2 3 4 4 5 6 4 3 3 6 6 8 9 10 12 13 14 14 13 12 10 11 14 15 17 19 19 17 16 17 18 19 18 17 17 18 18 18 17 16 15 15 15 13 13 13 11 10 10 9 9 8 8 8 7 7 7 6 6 6 6 6 6 7 6 7 7 7 7 7 7 6 6 7 7 8 8 8 9 9 9 9 9 10 11 12 13 13
1 3 4 5 6 6 3 4 6 5 3 4 5 6 6 4 3 2 6 6 8 9 10 13 12 12 13 12 11 9 11 13 13 16 20 19 17 17 17 17 18 17 16 16 18 18 18 17 16 15 14 15 13 13 12 12 11 10 10 9 9 8 8 7 7 7 7 7 7 6 6 6 6 6 7 7 7 8 8 8 8 7 8 8 9 9 9 10 10 10 11 11 11 12 13 14 14
5 6 6 7 7 7 7 4 2 4 5 5 5 6 5 3 2 1 6 6 8 9 9 12 13 13 13 13 11 11 13 13 14 17 20 19 17 17 16 16 17 16 15 16 17 17 17 16 16 15 14 14 13 12 12 12 11 11 10 9 9 9 9 8 7 7 7 7 7 6 6 6 6 6 7 7 7 8 8 8 8 8 9 9 9 10 10 10 10 11 12 12 12 13 14 15 15
9 9 8 8 8 7 9 7 3 1 6 6 5 6 4 2 1 2 5 7 8 9 9 9 11 13 12 12 12 13 14 13 15 19 19 19 17 17 15 15 15 15 14 15 16 17 17 16 15 15 15 13 13 12 12 12 11 11 11 10 10 9 9 8 8 8 7 7 7 6 6 6 6 6 7 7 8 8 8 9 9 9 9 10 10 10 10 10 11 12 13 14 14 14 14 14 14
10 9 8 9 9 7 8 7 3 1 6 5 3 6 5 2 1 3 5 7 8 10 11 10 10 12 12 14 15 14 13 13 17 19 19 19 18 17 15 14 15 14 14 16 17 17 17 16 16 16 15 14 13 13 13 13 12 12 11 11 10 10 9 9 8 8 8 7 7 6 6 6 6 7 7 8 8 9 9 9 10 11 10 10 11 11 12 12 13 14 13 14 14 14 13 12 12
9 8 8 8 7 8 8 6 2 1 4 3 2 6 5 2 1 3 6 7 8 10 12 12 13 14 14 15 16 14 13 14 16 18 18 19 18 17 15 13 15 15 15 16 17 17 17 17 16 16 15 15 14 14 13 13 12 11 10 10 9 9 9 9 8 8 8 7 7 7 7 7 7 7 8 8 9 10 10 10 11 11 11 11 12 13 13 14 14 13 13 13 12 12 12 12 11
8 7 7 6 5 9 6 2 4 2 3 4 2 6 4 3 2 2 7 7 7 9 11 11 14 14 12 12 14 14 15 14 15 17 18 19 18 18 16 14 15 15 15 17 17 17 17 17 16 15 15 15 15 14 13 12 11 10 9 8 7 7 7 7 7 6 6 6 6 7 7 8 8 8 8 8 9 9 10 11 11 12 12 12 13 13 13 12 12 11 11 11 11 11 12 11 9
6 6 6 5 7 10 5 2 2 2 4 5 6 7 3 5 4 3 6 6 6 7 8 9 12 12 12 14 15 16 17 15 15 17 17 18 19 18 16 15 15 15 16 17 18 18 17 16 16 16 15 15 14 14 13 12 10 10 8 6 5 5 3 4 6 6 7 7 7 7 8 8 9 8 8 8 8 9 10 12 13 13 12 12 12 12 12 11 10 10 10 10 11 11 12 11 10
6 6 5 7 9 11 10 5 5 6 6 5 7 7 3 5 6 5 5 6 6 7 8 8 10 9 10 15 17 16 16 15 15 17 16 17 18 18 17 16 15 16 16 17 18 18 17 17 17 16 15 15 14 14 14 11 10 10 9 7 6 6 5 5 7 8 8 9 9 8 8 8 8 8 7 8 8 9 11 14 14 13 12 11 11 11 11 11 10 10 10 10 11 11 12 13 12
5 2 3 9 12 13 13 9 7 7 3 5 5 6 1 6 7 5 5 7 7 7 8 9 10 10 9 13 16 16 15 14 14 16 16 16 18 18 18 17 17 17 16 17 17 17 17 17 17 17 16 15 14 14 14 12 11 11 10 10 9 8 8 9 9 8 8 8 8 8 8 7 7 7 7 7 8 9 11 13 13 12 11 10 10 10 11 11 11 11 10 10 11 11 12 14 13
4 2 5 11 13 13 13 9 6 6 4 2 4 6 2 4 7 7 7 8 9 8 7 8 11 12 11 12 14 15 15 14 14 15 16 16 18 19 18 18 18 17 17 17 17 17 17 16 17 18 16 15 14 13 14 13 12 11 11 11 10 10 9 9 8 8 7 7 7 7 7 7 7 7 7 7 8 9 11 12 12 12 10 10 9 10 11 12 12 12 12 12 14 14 14 14 15
4 4 8 12 13 12 11 8 5 5 7 2 6 5 5 2 5 8 9 9 10 10 10 9 11 13 14 13 14 14 14 14 14 15 16 16 17 18 19 19 18 18 18 17 16 16 17 16 17 17 16 15 14 13 14 14 13 11 11 11 10 9 9 8 7 7 7 6 6 7 7 7 7 7 7 8 8 9 11 11 11 12 10 9 9 10 11 12 13 14 14 14 15 15 14 15 17
5 7 11 12 11 11 8 6 5 4 6 3 4 3 6 1 5 8 10 10 10 13 15 13 12 14 15 14 14 14 15 15 15 15 16 15 17 19 20 20 19 19 18 17 16 16 16 16 16 17 16 15 14 14 15 15 14 12 11 11 10 10 9 7 6 6 6 6 7 7 7 7 7 7 7 9 10 10 11 11 11 11 10 10 10 11 12 13 14 15 15 15 15 15 15 16 17
7 10 13 11 9 8 6 6 5 4 5 4 2 1 6 3 5 7 8 9 11 12 14 15 14 13 14 15 15 15 15 14 15 16 16 16 18 19 19 19 20 19 18 17 17 15 16 16 16 17 17 15 15 15 15 15 14 12 11 11 11 11 9 7 6 6 6 7 7 8 8 8 9 8 7 8 9 9 9 8 9 10 10 10 11 12 13 13 14 14 15 15 15 16 17 16 17
10 11 11 9 7 6 5 4 4 5 4 3 4 2 6 4 3 7 7 7 10 11 13 15 16 14 15 15 15 15 15 14 15 16 16 18 20 20 19 20 20 19 18 17 17 16 15 16 16 17 17 15 15 16 16 15 14 13 12 12 12 12 10 9 8 7 7 7 8 9 9 9 9 8 7 7 8 7 7 7 9 10 11 11 12 13 13 14 15 16 16 16 16 16 17 16 17
9 9 7 7 5 5 5 4 3 5 2 3 5 5 5 5 1 3 6 6 8 13 15 18 19 16 15 15 14 16 16 15 15 15 15 17 18 19 20 20 20 19 18 17 17 16 15 15 16 17 17 16 15 15 16 15 14 13 13 13 12 12 12 10 9 8 8 8 8 9 8 8 8 8 8 8 7 6 7 9 10 11 12 12 12 13 14 15 16 16 16 16 16 16 15 16 16
6 7 6 5 5 4 4 3 3 4 3 3 5 6 5 5 2 2 4 6 9 13 15 19 20 19 17 17 16 16 15 16 16 15 15 16 16 18 20 20 19 18 18 17 17 16 16 16 16 17 17 17 16 15 15 15 14 14 13 13 12 12 12 12 11 9 8 8 7 8 8 8 8 8 8 7 6 7 10 11 11 12 12 11 11 13 14 14 14 15 15 15 15 15 14 15 15
5 5 5 4 5 5 4 4 4 4 2 2 2 3 5 4 2 4 2 4 9 14 17 19 20 20 19 18 17 15 16 17 16 15 16 15 16 19 20 20 19 18 18 17 17 16 15 15 16 17 17 17 17 16 15 15 15 14 13 13 12 11 11 12 11 10 9 8 7 8 8 8 8 8 7 7 7 9 11 11 11 11 10 9 11 13 13 12 12 12 13 12 13 12 11 12 13
5 5 5 5 5 5 5 4 5 5 6 5 1 2 7 5 3 4 3 2 7 14 17 17 17 16 16 16 16 15 15 16 16 16 17 16 18 21 21 20 19 18 18 17 17 16 15 15 16 17 17 17 17 16 15 15 15 14 14 13 12 11 10 10 10 10 9 8 7 7 7 7 8 7 7 7 8 10 10 9 10 9 8 8 9 10 10 9 9 9 9 9 10 10 11 13 14
4 4 5 5 4 4 5 6 6 7 8 6 1 3 6 3 4 3 2 1 6 14 17 17 16 15 14 14 15 15 15 16 17 17 17 18 20 22 21 20 20 19 18 17 16 16 16 15 16 17 18 17 17 17 16 16 15 14 14 14 13 12 11 10 10 10 10 9 9 8 7 7 7 7 7 8 9 9 8 8 9 7 7 7 7 8 8 7 8 8 8 9 10 11 13 15 16
1 4 4 2 4 6 7 6 5 7 6 4 3 5 6 2 4 5 5 4 8 14 17 18 18 17 16 15 15 16 16 17 17 17 18 19 20 22 21 21 21 20 19 18 17 16 16 16 16 17 17 17 16 17 17 16 15 14 14 14 13 13 13 12 11 10 9 9 9 9 8 8 8 8 8 8 8 7 6 7 7 5 6 6 5 6 7 7 8 8 9 9 9 11 13 14 14
5 3 2 3 4 5 5 5 4 5 5 4 5 7 7 5 3 4 6 7 11 14 16 18 19 19 18 16 16 16 16 16 17 18 19 19 20 22 22 22 22 21 20 19 18 17 16 16 16 17 18 17 17 17 17 16 15 15 14 14 14 14 14 12 11 10 9 9 8 8 8 8 8 8 7 7 7 5 4 5 5 4 5 5 5 6 6 8 9 9 9 9 9 12 13 13 13
9 6 5 5 6 4 2 4 5 5 5 4 6 8 6 6 7 5 4 6 11 14 16 18 19 19 17 16 17 17 15 15 16 17 18 17 19 22 23 23 22 21 20 19 19 18 17 17 17 17 18 18 17 17 16 15 15 14 13 13 13 13 13 12 11 11 10 9 9 8 8 8 8 8 6 4 4 3 3 4 4 4 4 5 5 6 7 9 10 9 10 10 11 14 14 13 13
9 8 5 5 5 4 4 4 5 5 5 4 6 7 5 7 8 9 9 4 9 14 15 16 18 18 16 15 15 15 15 14 14 16 17 17 19 23 24 23 22 21 20 19 19 19 19 18 17 17 17 17 17 17 15 15 15 14 13 12 12 12 12 12 12 12 11 9 9 8 8 8 7 5 2 1 2 1 2 3 3 4 4 5 6 7 8 9 10 10 11 11 12 14 13 12 12
7 6 6 6 4 3 4 5 4 5 5 4 5 5 4 7 7 8 11 6 6 13 14 14 14 15 14 13 14 13 13 14 14 15 16 17 20 23 24 23 21 21 20 19 19 19 20 19 17 18 17 17 17 17 16 15 15 13 12 12 11 11 11 12 12 12 11 10 9 8 7 6 3 2 1 1 2 3 3 4 4 5 5 6 8 9 9 9 10 11 10 10 11 13 12 12 12
3 4 4 5 4 3 5 5 4 4 4 5 5 6 5 6 6 7 9 6 3 11 14 13 14 13 11 11 13 13 12 13 14 15 16 17 18 22 24 23 21 20 20 20 19 19 20 19 18 17 17 17 17 17 17 17 16 14 13 12 10 9 10 11 11 11 10 9 8 7 6 4 3 3 3 3 4 5 5 5 5 5 6 7 8 9 9 9 10 11 11 10 11 13 12 12 12
Wind_Direction
138 143 145 149 150 163 183 212 242 192 239 3 85 99 96 34 334 307 53 79 51 277 94 11 168 129 113 155 165 140 150 148 79 129 124 84 140 152 152 147 147 146 147 148 148 150 151 152 152 153 151 149 148 147 148 148 146 144 142 139 141 143 150 157 161 163 162 163 164 168 169 171 171 170 167 160 165 170 159 151 144 128 115 118 122 120 116 101 67 37 22 11 4 0 356 352 344
141 145 148 156 174 232 205 219 263 196 222 80 51 59 114 198 141 20 21 57 68 114 141 175 157 127 77 136 172 171 106 59 67 91 97 119 142 149 149 147 147 148 149 149 149 150 152 153 154 155 152 150 149 147 146 146 147 148 147 145 145 145 148 151 157 163 164 166 168 171 173 175 175 173 169 164 171 172 162 153 140 130 131 137 135 135 130 91 29 5 357 347 342 344 345 343 339
141 141 153 184 222 252 277 241 279 314 270 93 68 47 106 251 62 46 34 65 92 126 151 157 151 127 144 154 175 175 126 86 93 90 110 137 144 149 150 148 147 147 148 149 150 150 151 154 154 154 153 151 149 148 146 146 147 149 151 150 149 146 146 148 154 162 163 166 167 169 170 173 173 172 171 170 174 172 166 161 153 152 155 154 153 154 139 6 338 337 332 330 332 334 337 336 338
140 143 165 221 229 236 251 246 297 311 316 61 61 52 28 4 41 56 60 86 123 149 151 151 147 94 207 162 146 137 132 134 106 87 128 148 147 149 151 148 148 146 147 149 150 150 151 154 153 154 154 151 151 149 147 146 146 148 151 154 154 151 148 147 149 153 154 156 158 161 164 166 168 170 172 173 174 172 168 166 166 166 167 170 173 178 210 280 308 313 317 322 326 331 336 340 342
144 157 202 246 257 241 270 267 290 294 359 27 49 68 39 11 25 48 68 123 146 155 153 157 140 119 204 145 134 146 116 119 116 108 133 146 146 149 150 147 148 146 147 148 149 149 150 153 151 153 153 152 152 151 149 146 145 144 146 151 154 155 154 153 152 152 152 155 157 161 165 167 170 171 174 176 175 172 168 168 171 174 178 185 192 205 238 265 289 304 316 322 327 336 342 343 342
160 176 214 237 281 308 276 266 272 338 31 4 2 36 24 18 20 34 88 133 146 150 166 170 153 162 168 103 52 42 77 101 128 131 135 142 147 151 149 147 149 146 145 146 147 146 149 152 151 153 153 152 153 151 151 147 145 143 143 146 149 152 155 157 158 158 158 161 165 168 171 174 175 173 176 176 171 170 170 174 178 185 191 197 213 230 253 273 295 312 324 326 333 338 334 334 337
169 194 208 226 241 227 263 267 325 22 50 359 347 355 351 9 8 359 141 153 157 158 182 182 164 162 144 127 118 54 59 49 109 133 138 142 149 150 150 149 147 145 144 144 144 145 150 152 152 154 154 153 153 151 150 148 147 145 144 146 149 151 152 154 155 156 157 160 163 166 171 174 173 172 172 170 169 173 177 183 188 196 205 213 234 253 270 287 309 325 332 331 335 330 324 326 328
195 235 224 249 237 207 256 261 27 28 50 5 349 339 339 341 322 263 179 179 165 163 177 173 181 165 118 130 132 71 67 57 105 127 137 144 149 150 151 151 146 145 144 142 142 146 151 152 153 154 154 154 153 152 150 149 148 148 148 148 150 151 151 153 153 155 156 158 159 161 165 167 170 171 171 173 175 181 184 189 197 206 218 235 254 271 284 299 314 325 327 326 326 319 319 319 319
229 246 248 258 257 226 239 143 73 55 38 23 13 360 351 332 275 227 190 177 155 164 166 162 201 169 128 128 113 84 90 112 136 131 142 147 149 150 151 152 147 146 144 143 142 144 149 152 154 154 154 154 154 153 151 150 150 150 150 151 153 152 154 155 156 158 158 159 161 163 165 167 170 173 174 178 181 185 192 198 207 217 232 247 265 278 288 299 308 315 319 322 320 315 315 313 315
229 234 267 265 257 246 200 80 70 76 46 43 33 13 8 1 215 196 174 159 154 161 159 167 206 147 134 130 113 161 131 135 139 136 147 149 150 150 149 151 148 146 144 144 143 144 148 152 154 154 153 153 154 155 154 153 152 153 152 154 157 158 161 162 164 163 164 164 165 167 168 170 172 175 178 182 187 192 199 207 218 229 240 249 262 278 292 302 305 311 317 318 311 308 311 314 316
232 201 262 272 250 266 34 43 57 72 67 64 56 31 16 28 171 175 165 155 160 157 161 181 180 146 135 117 107 136 140 141 140 141 148 149 151 150 148 149 148 146 145 144 145 145 147 151 154 154 152 153 155 156 156 155 153 156 156 158 162 165 168 170 172 172 172 171 172 173 173 177 178 181 185 190 195 201 209 217 226 234 241 249 262 282 295 299 303 308 314 313 305 306 311 315 316
251 208 235 265 312 8 7 20 36 54 88 63 55 44 19 24 150 169 169 161 167 157 164 181 168 159 144 119 114 138 144 143 142 145 147 150 150 149 147 147 148 147 144 145 146 146 147 150 154 155 154 156 156 154 157 155 154 159 161 163 167 170 173 176 178 179 181 180 180 180 181 184 186 189 194 198 203 209 217 222 229 236 242 253 265 284 291 296 304 306 310 310 307 309 311 312 312
270 306 267 290 1 354 357 21 13 304 97 52 47 42 12 12 32 163 171 166 173 163 159 172 182 214 140 111 123 144 146 144 146 147 147 151 150 149 146 145 148 146 145 146 147 148 149 149 153 156 158 159 155 152 157 159 160 165 168 168 171 174 176 179 181 184 186 187 187 187 188 191 194 197 201 205 212 216 220 226 230 237 243 255 268 281 290 297 303 307 311 311 311 311 310 311 313
282 313 295 314 72 312 360 6 347 322 61 52 52 44 22 19 13 108 180 175 168 149 136 155 188 179 126 124 138 145 148 147 149 148 149 150 148 148 146 145 147 146 147 149 149 149 150 151 153 156 158 158 156 157 161 165 168 173 177 174 175 177 178 182 183 188 190 189 190 191 194 197 202 205 210 211 214 216 218 224 227 239 247 257 270 282 292 298 305 308 311 310 309 309 309 312 314
282 307 284 294 107 196 37 350 353 354 37 46 49 30 34 52 6 162 191 194 138 117 128 155 205 191 156 174 155 149 150 149 150 148 150 148 146 148 146 146 147 148 150 151 152 151 152 153 153 156 157 159 158 160 164 170 174 176 179 177 179 181 182 185 185 191 193 191 192 194 198 200 206 208 211 212 212 215 220 229 229 241 260 272 279 287 294 299 304 304 306 305 305 306 307 309 307
266 294 268 278 30 47 35 345 349 352 20 38 61 351 340 89 28 139 75 302 125 144 174 168 195 223 155 166 141 147 149 149 150 150 150 147 146 146 147 149 148 150 152 155 156 154 156 154 155 157 158 163 161 161 164 169 178 176 175 177 179 182 185 185 185 192 192 194 194 194 198 200 208 212 213 214 213 217 222 231 240 254 270 277 281 287 294 297 299 300 299 300 300 302 303 305 308
246 267 266 22 40 31 21 352 353 346 349 25 63 321 319 51 114 115 96 204 156 158 187 163 172 159 92 132 137 145 147 148 150 151 152 150 148 147 150 153 152 153 156 160 160 159 159 157 158 158 162 166 163 163 162 166 175 172 171 175 177 183 189 187 186 188 187 195 194 192 197 192 198 212 218 217 220 226 227 236 249 263 272 276 286 287 289 294 296 298 296 299 300 303 309 313 319
241 252 304 35 34 36 19 350 355 334 324 355 344 313 316 330 74 132 156 187 165 161 172 158 167 144 106 130 140 145 149 150 152 156 156 155 154 152 155 157 157 158 160 163 164 163 163 162 161 160 164 167 164 164 163 166 168 165 169 175 179 186 192 192 187 179 182 199 193 186 195 191 190 203 207 208 217 222 227 242 248 256 264 271 281 284 294 298 299 304 305 310 311 320 331 324 319
250 284 344 42 27 30 8 330 339 319 316 329 309 300 306 313 358 147 199 187 171 182 174 166 171 147 129 139 145 149 153 153 155 160 159 160 160 158 159 160 161 162 162 165 166 167 166 165 167 166 166 166 166 166 166 168 165 164 170 176 181 183 192 193 182 171 182 203 195 180 192 200 194 198 202 207 218 223 233 251 256 261 273 285 294 303 316 322 327 330 329 333 335 341 343 316 306
253 280 334 51 13 353 351 312 312 314 313 309 302 301 288 294 320 193 221 200 188 202 181 171 178 157 147 150 151 154 158 157 159 163 163 163 163 162 163 162 163 164 166 167 167 169 168 169 171 170 169 168 168 169 168 169 168 169 171 179 179 176 189 192 179 175 187 199 196 190 196 201 195 197 211 221 231 239 250 271 282 286 299 311 316 318 320 328 339 341 338 343 345 336 322 310 312
283 264 318 19 351 329 347 324 304 308 305 302 307 294 283 291 266 231 243 225 197 202 189 179 181 161 154 156 157 159 161 162 164 166 165 165 165 166 167 166 165 165 166 167 167 170 170 171 172 169 169 170 171 170 169 171 172 174 175 179 177 173 181 185 184 191 198 199 198 199 197 196 194 197 215 227 233 248 263 281 291 300 309 309 315 318 317 324 333 332 330 334 329 323 321 320 320
275 245 286 330 319 314 325 322 307 303 296 293 296 286 292 305 248 243 250 244 208 189 188 184 180 163 160 162 160 162 165 168 169 167 167 168 168 167 167 167 166 167 167 167 168 170 171 172 171 169 170 171 172 172 171 174 175 178 181 179 178 179 179 182 190 196 200 201 200 201 194 194 198 203 213 222 243 265 282 294 296 311 315 311 316 319 328 329 328 330 332 331 328 327 322 316 311
272 257 278 308 308 299 303 309 299 289 286 286 292 292 288 276 259 245 243 247 255 36 165 183 179 167 165 165 164 167 170 173 171 169 171 171 170 170 168 169 170 171 170 170 170 170 172 173 171 171 173 174 173 176 173 176 181 182 183 181 181 183 184 190 195 197 198 197 198 200 200 202 202 203 203 220 260 272 288 310 311 320 317 321 331 324 330 330 328 332 330 327 323 318 314 309 303
258 282 297 306 303 291 296 303 296 291 288 288 290 281 261 260 270 248 238 245 235 100 67 179 181 168 164 168 170 171 173 174 173 171 173 174 175 174 171 171 173 173 172 173 171 171 175 174 173 173 173 175 175 179 178 179 185 184 185 186 183 184 191 197 198 196 194 193 197 204 211 215 208 202 193 202 240 269 299 317 314 319 320 327 331 321 322 329 332 330 324 320 317 317 312 304 303
239 279 301 304 301 293 299 299 296 298 293 287 258 252 252 255 277 266 244 242 216 188 169 173 178 164 163 176 176 174 175 175 173 172 174 175 177 176 173 173 174 176 176 176 175 175 177 176 177 178 175 175 176 179 182 182 185 187 189 188 184 189 196 198 198 197 194 197 203 206 216 221 215 202 199 201 200 263 303 314 313 318 322 323 318 314 321 328 328 324 321 318 315 314 305 303 308
232 281 300 301 299 299 302 299 298 296 284 266 238 245 251 249 271 255 234 226 198 185 179 172 175 162 166 181 177 178 178 176 176 173 174 174 174 176 174 175 176 179 179 177 179 178 177 178 179 181 178 176 177 178 181 183 186 191 189 187 186 192 201 201 202 204 200 204 202 200 210 222 233 216 198 210 222 264 295 296 302 305 306 309 308 314 320 320 319 315 313 310 311 309 302 307 311
280 287 295 293 292 296 298 297 297 280 257 245 249 264 257 165 239 240 195 197 190 183 179 173 178 167 169 175 171 188 184 176 179 173 173 173 173 177 175 177 179 179 180 179 182 179 176 180 182 181 179 177 178 178 178 181 186 192 190 188 188 191 200 203 205 210 207 204 196 195 208 221 236 234 208 211 221 243 266 264 272 282 286 296 305 311 316 317 314 307 304 305 306 303 301 305 306
291 291 294 289 283 280 277 262 232 238 231 240 266 280 244 171 230 242 141 166 179 185 181 175 182 170 166 169 170 203 195 178 179 175 175 175 174 178 179 179 180 179 182 181 180 179 178 181 182 181 180 178 180 179 177 181 187 191 191 190 190 191 196 201 204 206 207 205 198 197 208 216 223 231 224 219 238 255 257 260 261 270 279 292 300 304 310 312 307 300 299 299 297 297 297 297 297
284 285 290 290 271 206 218 203 187 221 229 269 281 279 222 190 218 203 153 166 174 186 185 179 181 162 159 171 177 210 204 180 178 179 176 175 174 178 182 182 181 181 182 181 179 179 180 180 180 181 181 180 183 183 178 184 189 188 191 190 189 189 192 200 204 204 204 204 203 206 210 215 219 222 223 227 245 253 252 258 261 266 271 281 290 295 300 298 293 292 292 289 288 292 292 293 297
279 277 278 288 272 179 186 175 177 205 128 171 279 306 141 160 166 158 165 178 182 185 187 184 170 152 160 170 187 205 201 183 177 180 175 172 176 179 182 182 182 182 178 178 179 179 179 178 179 180 182 183 184 186 181 184 188 186 188 189 188 190 195 200 204 204 204 205 208 212 214 217 220 221 226 234 245 252 254 257 259 265 267 275 285 287 288 287 286 288 290 290 289 289 292 299 303
270 275 253 268 310 152 174 179 183 196 133 196 265 311 30 68 113 154 168 182 193 187 186 183 164 160 172 175 194 198 193 187 178 176 173 173 177 179 180 179 181 180 174 178 179 178 177 175 178 180 182 184 184 187 185 185 188 186 187 189 189 191 197 200 202 202 201 205 209 212 216 219 222 226 232 240 249 256 260 261 260 265 272 279 281 280 282 284 283 284 288 293 296 298 302 305 303
250 274 256 256 323 83 164 175 194 206 137 200 262 310 1 51 90 141 167 184 199 194 185 181 172 172 174 177 190 189 189 189 179 174 172 173 176 177 178 176 179 178 174 178 176 177 179 176 179 181 182 185 186 187 188 187 189 189 188 190 191 192 199 201 202 203 202 205 207 212 216 220 226 231 237 245 252 262 268 270 270 271 277 280 279 279 280 279 279 282 288 297 302 304 305 304 305
205 273 313 315 325 339 153 169 191 195 153 202 237 295 341 37 67 123 171 190 200 201 186 180 180 174 172 179 184 187 191 185 179 177 172 173 174 174 176 174 177 177 175 177 174 178 180 178 182 184 184 185 187 187 188 189 191 192 190 191 194 195 201 203 202 207 208 209 212 215 216 221 231 235 241 247 255 265 270 274 277 280 282 281 281 283 280 280 284 288 293 296 299 301 301 303 306
206 310 319 321 324 325 337 152 177 193 226 257 228 258 315 4 25 126 170 190 198 202 190 181 179 171 174 179 177 190 196 183 182 180 173 174 174 173 175 173 177 177 175 177 176 179 180 179 185 186 185 185 187 187 188 191 191 193 194 195 197 200 205 208 207 209 211 215 217 217 220 226 234 239 243 248 256 265 271 275 280 284 287 286 285 285 284 286 289 292 295 296 296 297 299 302 305
326 330 326 319 324 324 332 1 138 195 257 283 252 262 301 341 356 134 163 181 198 198 189 184 177 171 178 179 177 190 194 188 186 180 174 175 174 175 175 173 177 176 175 177 175 178 180 179 182 185 186 186 186 186 187 192 192 192 197 198 200 204 210 213 213 213 214 219 220 217 223 230 236 239 242 249 256 264 269 272 278 282 285 286 286 287 288 289 290 293 295 296 295 293 293 295 297
319 320 312 309 315 313 323 346 49 278 284 271 260 286 306 316 3 131 162 174 193 193 183 191 181 170 175 182 183 185 188 189 186 180 176 175 175 175 173 172 175 175 174 174 173 176 178 178 179 182 187 187 184 185 187 191 192 192 197 198 200 205 209 213 216 218 219 221 223 222 224 231 236 239 245 250 256 261 266 271 276 279 281 283 285 288 291 293 296 297 296 295 294 292 291 290 292
306 306 302 302 304 307 322 342 35 337 294 283 270 290 291 288 79 135 162 172 187 191 180 188 187 171 176 190 187 180 184 187 182 179 177 177 176 172 170 169 171 171 171 172 173 176 177 178 178 181 187 189 186 186 188 192 192 192 195 199 201 203 204 210 215 218 222 222 223 227 229 233 236 241 246 249 254 260 266 272 276 278 281 282 283 286 289 291 291 291 291 290 288 289 292 295 299
293 295 298 298 304 320 332 347 46 147 289 309 272 280 275 210 155 139 163 180 188 192 183 184 190 178 179 191 184 176 185 184 177 177 177 178 175 170 169 169 170 171 171 173 175 176 178 179 180 182 186 189 190 189 190 193 194 194 195 199 203 201 197 207 215 215 221 222 221 229 233 235 237 241 245 249 255 262 268 274 279 282 283 283 283 283 285 285 283 283 285 286 287 291 294 298 304
286 287 290 295 322 331 332 106 122 164 287 317 287 285 282 157 186 168 173 192 188 192 191 187 192 180 174 189 183 179 187 183 176 177 178 178 175 170 170 171 172 173 173 175 175 175 179 181 182 185 187 189 191 191 192 194 196 196 196 196 203 207 196 204 218 217 221 226 223 228 232 235 239 241 247 252 258 264 268 274 281 287 287 285 283 282 283 283 281 280 281 284 288 293 294 296 300
275 282 287 306 336 333 328 111 128 240 263 298 297 284 257 149 175 185 183 191 172 184 197 197 200 181 172 190 188 183 186 182 178 178 179 179 175 172 173 173 172 173 175 176 176 177 180 182 182 185 188 189 191 191 193 194 191 190 194 193 198 216 209 203 225 228 228 233 231 230 230 233 240 243 249 254 261 269 274 281 286 289 289 285 281 281 284 287 288 286 284 284 284 290 300 303 301
269 275 290 322 332 324 317 321 309 273 235 243 281 278 216 168 186 177 168 176 165 177 191 207 211 182 175 196 190 185 186 180 178 179 180 179 177 176 175 174 174 175 176 176 177 178 181 183 182 184 187 189 190 190 190 191 184 182 186 191 200 221 228 221 227 228 224 226 230 230 227 229 237 243 250 257 267 277 283 290 292 289 288 284 279 280 286 291 294 292 290 287 280 283 295 299 302
275 277 337 329 321 315 311 310 300 288 232 183 271 301 153 165 194 178 162 180 176 176 188 204 202 182 191 204 190 186 187 181 180 181 181 181 178 177 175 175 177 177 178 178 176 178 181 182 181 183 187 190 191 189 188 187 184 185 187 194 203 211 219 221 223 224 215 214 220 221 221 224 231 240 251 261 272 283 291 298 301 297 289 283 281 281 286 291 293 291 289 286 283 281 283 287 295
278 54 354 321 314 313 313 308 287 301 338 156 236 301 340 169 193 176 168 190 184 175 193 206 196 185 197 205 189 188 190 184 184 184 183 182 179 177 175 178 181 180 180 179 178 180 181 181 180 183 187 190 192 188 186 188 187 192 197 203 209 209 215 218 219 224 219 215 216 217 224 227 233 245 253 265 277 289 302 309 312 310 296 286 287 285 289 294 296 298 296 291 286 285 281 276 281
295 17 335 317 317 317 317 310 280 302 326 239 202 270 296 236 175 163 165 189 192 187 197 202 196 190 195 200 190 190 195 187 183 186 186 182 179 179 177 179 183 182 180 180 181 182 182 183 182 183 186 189 192 189 187 191 192 196 202 209 215 216 221 219 217 225 225 226 228 229 237 235 238 248 256 272 285 295 307 314 318 318 304 294 294 294 297 301 301 301 298 291 282 281 280 274 275
300 343 321 311 310 308 309 300 288 307 313 282 174 232 287 302 139 161 170 187 200 199 199 196 196 193 191 199 194 190 199 193 184 186 187 182 179 181 179 180 184 184 183 183 183 184 184 184 184 184 185 187 190 189 188 194 197 197 202 210 216 220 226 225 220 224 225 233 240 242 247 249 253 258 264 283 299 305 309 316 322 319 307 298 296 298 301 300 299 297 294 289 282 279 280 276 274
302 318 304 292 282 285 292 289 301 300 282 316 55 220 299 341 144 173 184 198 207 199 196 193 194 195 190 198 197 192 200 199 188 187 187 183 180 181 180 181 185 185 185 185 184 186 185 184 185 185 185 188 189 188 190 196 199 200 205 211 216 220 224 228 226 226 230 241 249 250 252 256 261 264 269 284 300 305 303 311 319 314 304 300 296 296 298 299 299 297 294 291 285 281 280 279 276
293 297 290 286 271 263 275 278 299 289 258 351 13 305 299 312 169 180 187 203 204 187 183 186 190 195 191 194 197 194 198 199 192 189 186 184 183 182 181 183 185 186 187 186 185 188 188 185 185 187 188 189 189 189 193 197 200 204 208 212 217 220 222 225 227 231 236 242 250 252 252 255 260 266 273 278 287 298 302 308 315 313 308 302 297 297 300 302 302 301 298 295 290 285 282 283 281
276 282 281 293 281 248 255 246 243 281 317 28 351 323 289 280 278 177 177 183 188 179 178 180 184 191 190 191 195 194 197 197 192 190 186 185 186 184 185 186 185 186 188 188 187 188 191 189 185 186 189 189 190 192 195 199 203 207 211 214 218 221 224 226 229 235 239 242 247 248 249 254 262 268 273 276 281 300 315 315 315 315 311 306 304 304 305 306 305 302 300 298 296 293 290 290 288
252 265 271 285 285 262 262 262 256 287 340 13 337 330 286 264 334 51 162 171 177 175 174 175 178 185 186 188 193 192 195 195 192 191 187 185 187 188 189 188 186 189 191 191 190 189 191 192 187 185 188 190 191 194 196 199 204 209 213 216 218 221 224 228 234 240 243 246 250 250 249 253 259 264 269 277 288 309 319 318 317 315 313 312 309 309 311 310 307 305 303 302 302 301 299 299 296
237 257 279 285 294 297 287 288 297 296 324 4 352 322 297 290 15 25 46 159 173 170 171 173 176 183 184 184 188 187 191 194 191 190 189 186 188 190 192 191 190 193 195 194 193 191 191 192 190 187 188 190 191 193 196 199 205 210 213 216 218 220 223 228 235 241 245 249 252 254 256 258 262 267 275 288 303 314 318 318 319 317 316 316 315 316 319 316 312 311 309 311 312 312 313 312 309
256 269 291 285 287 299 301 305 317 318 320 332 49 282 313 339 36 24 34 126 172 165 164 166 170 181 182 181 184 184 188 192 189 189 190 188 188 191 192 193 194 196 198 198 195 193 195 194 191 189 188 189 191 193 195 199 206 211 214 216 219 221 223 227 233 238 243 247 252 257 260 267 273 280 290 301 309 314 318 321 324 323 324 327 327 328 328 324 324 322 320 324 324 325 328 324 319
257 260 261 274 304 304 291 297 307 308 308 315 308 296 320 15 89 84 81 168 174 158 155 158 163 173 178 183 186 183 187 191 187 186 190 188 187 191 192 194 196 198 201 202 198 195 197 196 193 191 189 189 191 193 196 203 208 210 213 217 219 221 225 228 230 234 240 247 256 263 267 273 281 289 296 301 308 315 320 325 330 333 338 342 341 342 342 338 337 338 336 335 332 329 326 322 319
259 239 244 297 330 306 289 285 280 278 286 307 322 327 338 20 103 106 101 124 153 155 156 160 164 171 180 189 190 185 186 187 183 185 188 187 187 190 192 194 197 200 201 203 204 200 198 198 196 192 190 191 192 194 200 204 207 211 213 215 218 221 225 229 232 234 240 247 252 259 266 273 279 286 292 297 308 319 322 327 338 348 352 357 356 354 355 352 349 350 345 340 339 336 331 326 325
261 249 341 341 272 264 286 291 284 285 298 319 333 344 352 356 31 94 105 120 143 158 164 164 168 175 181 190 192 186 183 181 182 184 184 184 187 189 192 195 197 200 202 203 205 203 200 201 199 194 192 193 193 196 203 205 207 211 213 215 218 222 227 232 235 237 240 244 248 254 264 271 276 283 289 296 310 324 334 343 358 9 10 14 10 3 1 357 355 354 346 341 342 343 337 331 330
250 282 335 303 261 243 258 288 297 303 310 319 337 349 3 11 9 15 47 113 148 162 167 167 170 175 180 187 189 185 180 178 181 182 180 182 186 187 191 195 197 200 203 203 202 202 202 202 201 198 196 194 194 197 202 206 208 211 213 216 219 222 227 229 229 232 236 243 250 257 263 268 274 281 283 292 316 334 1 13 28 38 32 27 17 10 4 359 360 356 347 341 341 342 339 333 333
224 266 269 245 269 292 283 290 297 300 306 314 333 343 11 26 5 352 6 58 156 166 168 169 170 174 178 182 184 183 180 180 182 181 179 180 184 186 189 194 197 199 201 202 199 199 202 201 198 199 198 193 193 197 201 205 209 212 214 215 217 219 221 222 224 230 236 245 253 256 260 266 270 271 264 303 339 354 50 54 57 51 39 24 10 7 5 1 1 358 350 344 343 345 344 339 337
199 230 232 219 227 258 273 280 272 283 299 304 323 328 359 30 9 348 3 25 156 166 165 164 165 168 170 172 176 179 179 181 183 181 180 182 184 186 187 191 196 197 199 202 200 199 200 198 196 198 198 193 192 195 199 203 207 211 214 216 217 214 213 217 224 233 240 247 252 252 254 257 245 202 147 113 88 92 94 87 74 57 42 21 7 6 8 5 3 2 358 355 355 353 350 346 342
267 255 259 256 243 242 261 259 246 262 285 299 318 320 347 30 13 350 6 24 128 156 156 154 154 155 163 172 176 181 184 183 183 183 184 184 185 187 187 189 194 197 199 201 200 200 199 195 195 197 195 193 192 194 200 206 207 208 211 215 214 211 209 214 224 234 239 242 243 242 235 211 173 151 134 121 113 106 101 96 80 57 41 23 13 14 14 12 12 12 9 5 2 357 351 347 345